Regional Weather Roundup
Issued by NWS Wakefield, VA

Home | Current Version | Previous Version | Text Only | Print | Product List | Glossary On
Versions: 1 2 3 4 5 6 7 8 9 10 11 12 13 14 15 16 17 18 19 20 21 22 23 24 25 26 27 28 29 30 31 32 33 34 35 36 37 38 39 40 41 42 43 44 45 46 47 48 49 50
000
ASUS41 KAKQ 301915
RWRAKQ

REGIONAL WEATHER ROUNDUP
NATIONAL WEATHER SERVICE WAKEFIELD VA
300 PM EDT SAT MAY 30 2015

Note: "fair" indicates few or no clouds below 12,000 feet with no
significant weather and/or obstructions to visibility. * = Denotes
station may not report precipitation (e.g., rain,snow,etc.),
thunder or fog.

VAZ042-051-052>054-056-302000-
NORTHERN VIRGINIA

CITY           SKY/WX    TMP DP  RH WIND       PRES   REMARKS
WASH NATIONAL  MOSUNNY   89  68  49 S13       30.11F
DULLES         MOSUNNY   86  66  51 SW12G21   30.10F
FORT BELVOIR   SUNNY     87  65  46 S8        30.11F
QUANTICO       SUNNY     82  69  64 S10       30.12F
FREDERICKSBRG* SUNNY     90  63  39 S8G16     30.11F
STAFFORD*      MOSUNNY   85  62  45 S8        30.16F
WARRENTON      MOSUNNY   88  67  49 S12       30.11F
CULPEPER*      MOSUNNY   86  62  43 S9        30.11F
MANASSAS*      MOSUNNY   86  63  45 S15       30.11F
LEESBURG*      MOSUNNY   90  66  45 S17G23    30.11F
WINCHESTER     MOSUNNY   86  66  51 S12       30.11F
FRONT ROYAL*   FAIR      81  64  57 S3        30.10F
LURAY*         MOCLDY    88  64  45 S7        30.11F
$$

VAZ048-049-060>072-079>083-302000-
CENTRAL AND SOUTH CENTRAL VIRGINIA

CITY           SKY/WX    TMP DP  RH WIND       PRES   REMARKS
RICHMOND       MOSUNNY   88  63  43 S12       30.14F
CHESTERFIELD*  NOT AVBL
PETERSBURG*    CLOUDY    86  70  58 SE6       30.15F
HANOVER        MOSUNNY   86  64  47 S12G20    30.15F
TAPPAHANNOCK*  MOSUNNY   87  58  36 SE8       30.15F
QUINTON*       FAIR      85  66  52 S7        30.15F
CHARLOTTSVILLE PTSUNNY   86  61  42 S10G20    30.12F
GORDONSVILLE*  MOCLDY    85  65  50 S6        30.11F
ORANGE*        PTSUNNY   86  61  42 SE6       30.13F
LOUISA*        MOSUNNY   88  63  42 S6        30.12F
BUMPASS*       FAIR      86  66  51 SW7G16    30.13F
FARMVILLE*     MOSUNNY   86  65  48 S8        30.13F
CREWE*         FAIR      85  65  50 S9        30.15F
FORT PICKETT*  FAIR      86  64  47 S10G17    30.15F
CHASE CITY*    MOCLDY    88  67  48 SE7       30.16F
CLARKSVILLE*   FAIR      86  64  48 S6        30.15F
SOUTH HILL*    MOSUNNY   82  64  53 CALM      30.21F
LAWRENCEVILLE* FAIR      82  64  54 S3        30.16F
EMPORIA*       PTSUNNY   82  64  54 SE7       30.18F
$$

VAZ088>098-302000-
SOUTHEAST VIRGINIA

CITY           SKY/WX    TMP DP  RH WIND       PRES   REMARKS
NORFOLK        MOSUNNY   84  66  54 E10       30.17F
VIRGINIA BEACH MOSUNNY   83  66  56 SE16      30.18F
NORFOLK NAVAL  PTSUNNY   87  67  51 E13G20    30.18F
WEST POINT*    SUNNY     88  61  40 SE10      30.17F
SALUDA*        FAIR      83  66  55 S9        30.16F
NEWPORT NEWS   PTSUNNY   86  66  51 SE13      30.17F
LANGLEY AFB    SUNNY     82  68  62 E13       30.17F
FORT EUSTIS    SUNNY     84  67  56 S8        30.15F
WILLIAMSBURG*  SUNNY     91  70  49 SE7       30.17F HX  97
HR EXEC AP*    MOCLDY    84  64  51 S5        30.18F
FRANKLIN*      PTSUNNY   85  63  47 SE9       30.16F
WAKEFIELD      MOSUNNY   86  65  49 S8        30.16F
$$

VAZ020-022-025-037-045-302000-
WEST CENTRAL AND SOUTHWEST VIRGINIA

CITY           SKY/WX    TMP DP  RH WIND       PRES   REMARKS
STAUNTON*      PTSUNNY   87  61  42 S9        30.15F
WAYNESBORO*    FAIR      81  62  52 S9        30.16F
HOT SPRINGS VA CLOUDY    72  61  67 S7        30.26S
LYNCHBURG      SUNNY     85  60  42 SW10      30.16F
DANVILLE       SUNNY     87  64  46 S8        30.15F
SOUTH BOSTON*  FAIR      86  62  45 MISG      30.15F
MARTINSVILLE   MOSUNNY   86  61  43 S5        30.18F
ROANOKE        PTSUNNY   83  59  44 SE16      30.16F
BLACKSBURG     PTSUNNY   79  60  50 S7        30.22F
DUBLIN*        PTSUNNY   82  58  45 S8        30.20F
MARION*        SUNNY     80  53  38 S8        30.23F
HILLSVILLE*    MOSUNNY   76  60  57 S8        30.26F
RICHLANDS*     MOCLDY    79  58  48 S8        30.19F
WISE*          PTSUNNY   77  54  44 S6        30.21F
ABINGDON*      PTSUNNY   82  55  38 S7        30.17F
$$

MDZ021>025-VAZ099-100-302000-
SOUTHERN MARYLAND AND THE DELMARVA PENINSULA

CITY           SKY/WX    TMP DP  RH WIND       PRES   REMARKS
PATUXENT RIVER MOSUNNY   79  68  69 SE16      30.14F
BAY BRIDGE APT   N/A    N/A N/A N/A S13G20    30.12F
LEONARDTOWN    MOSUNNY   82  63  51 SE9       30.15F
DOVER          MOSUNNY   88  64  44 SW13      30.11F
GEORGETOWN     PTSUNNY   85  67  54 S15       30.15F
EASTON         MOSUNNY   86  66  51 SW12G21   30.18F
CAMBRIDGE      SUNNY     82  63  51 S10G18    30.15F
SALISBURY      PTSUNNY   82  67  60 S15       30.16F
OCEAN CITY     SUNNY     76  66  71 S10G20    30.19F
WALLOPS ISLAND SUNNY     79  68  69 S16G23    30.20F
ACCOMACK*      SUNNY     81  66  61 S13       30.19F
$$

NCZ012>017-030>032-302000-
NORTH CENTRAL AND EASTERN NORTH CAROLINA

CITY           SKY/WX    TMP DP  RH WIND       PRES   REMARKS
ROANOKE RAPIDS CLOUDY    82  64  54 S6        30.16F
RALEIGH        PTSUNNY   84  65  52 SE6       30.17F
ELIZABETH CITY SUNNY     82  66  58 E14       30.19F
AHOSKIE*       MOSUNNY   84  64  51 S8        30.17F
EDENTON*         N/A     83  67  59 E8        30.18F
CURRITUCK*     SUNNY     82  65  56 E5G16     30.20F
KILL DEVIL HLS SUNNY     80  65  59 E10G16    30.20S
MANTEO         MOSUNNY   79  65  62 SE12      30.21S
CAPE HATTERAS  SUNNY     83  64  52 SE9       30.21F
TARBORO*       MOCLDY    87  64  46 SE5       30.17F
GOLDSBORO      NOT AVBL
WASHINGTON     SUNNY     85  62  46 S9        30.18F
GREENVILLE     MOSUNNY   86  63  45 SE7       30.17F
NEW BERN       SUNNY     86  65  49 SE12      30.18F
WILMINGTON     SUNNY     81  67  62 E12G20    30.18F
$$

VAZ048-302000-
ELSEWHERE

CITY           SKY/WX    TMP DP  RH WIND       PRES   REMARKS
HARRISBURG PA  PTSUNNY   85  65  51 VRB7G16   30.06F
BALTIMORE      PTSUNNY   85  67  54 SE8       30.10F
ANNAPOLIS      SUNNY     81  67  62 SE16G22   30.12F
ANDREWS AFB    MOSUNNY   85  68  57 S12       30.11F
PHILADELPHIA   MOSUNNY   86  66  51 S13       30.12F
HENDERSON NC   MOSUNNY   84  59  41 S7        30.17F
GREENSBORO     MOSUNNY   84  61  45 VRB7      30.16F
ROCKY MOUNT    PTSUNNY   87  65  47 VRB7      30.16F
$$

VAZ100-302000-
MARINE

STATION/POSITION TIME  TEMP    WIND        PRES    WAVE   SWELL
                       AIR SEA DIR/SP/G            HT/PER HT/PER
                 (UTC) (F)     (DEG/KT/KT) (MB)    (FT/S) (FT/S)
BRANDYWINE LGT   1800   70 69  170/ 19/ 21 1021.7F
CAPE MAY NJ      1800   74 70  160/ 11/ 16 1021.6F
LEWES DE         1800   79 63  170/ 12/ 15 1021.3F
15NM E FENWICK I 1850   69 67              1022.2F   4/10
OCEAN-CITY-INLET 1800   69 67  180/ 12/ 15 1022.6F
WACHAPREAGUE VA  1800   76 79  170/ 12/ 14 1022.8F
THOMAS POINT MD  1900   76 73  160/ 14/ 15 1020.6F
GOOSES REEF MD   1900   74 73  180/ 16/ 19 1021.3F   1/ 3
COVE POINT MD    1800   72     180/ 16/ 18 1022.1F
SOLOMONS ISLAND  1800      76                N/A
BISHOPS HEAD MD  1800   77 79  160/ 10/ 12 1021.8F
PINEY POINT MD   1800          150/ 15/ 16   N/A
CAMBRIDGE MD     1800   82 74  190/  7/ 14 1021.3F
LEWISETTA VA     1800   82 78              1021.1F
RAPPAHANNOCK LGT 1800          180/  7/  7 1023.0F
STINGRAY PT      1900   76 76  170/ 12/ 14 1021.9F   1/ 3
YORK RVR RNG VA  1800   75     140/ 16/ 19 1021.6F
YORKTOWN VA      1800   78 75  100/ 11/ 14 1021.8F
JAMESTOWN VA     1900   81 81  130/  8/ 12   N/A
DOMINION TERM VA 1800   76      80/ 12/ 16 1022.4F
KIPTOPEKE VA     1800      79  160/ 15/ 16   N/A
CHES BAY BRIDGE  1800   74 72   80/ 11/ 14 1022.1F
CAPE HENRY VA    1800   75     130/ 13/ 17 1021.5F
CHESAPEAKE LGHT  1800   71     140/ 17/ 17 1023.5F
WILLOUBY STN VA  1800   75      90/ 11/ 13 1022.9F
CAPE HENRY BUOY  1828      68                N/A     3/ 9
1ST LANDING BUOY 1900      73              1021.8F
CAPE CHARLES BUO 1826      72                N/A     3/ 9   3/ 9
OFFSHORE WE BUOY 1811      71                N/A     3/ 9   3/ 9
64NM E OF VA BCH 1850   71 71  120/  4/  6 1022.9F   4/ 9   3/ 9
DUCK PIER NC     1800   75 59  110/ 10/ 11 1022.2F
44100 DUCK FRF   1824      76                N/A     3/ 9
44056 DUCK FRF   1811      68                N/A     3/ 9   2/11
OREGON INLET NC  1800   78 79   90/  6/ 12 1023.3F
HATTERAS NC      1800   78 78  120/  5/  9 1022.8F
DIAMOND SHLS NC  1850   77 81   90/  8/ 10 1022.8F   4/10   3/10
CAPE LOOKOUT NC  1900   76      90/ 10/ 11 1022.1F
$$


USA.gov is the U.S. government's official web portal to all federal, state and local government web resources and services.